Total_Precipitation_Accumulation
1.58 1.69 1.37 1.76 2.06 2.65 2.99 3.87 4.69 4.39 4.32 5.25 5.06 4.27 3.77 3.18 2.99 2.73 2.33 2.10 2.14 2.51 2.46 2.30 2.18 2.20 2.33 2.29 2.15 2.07 1.88 1.99 1.82 1.08 0.99 0.95 0.86 0.71 0.73 0.86 0.92 0.94 0.99
3.03 3.34 2.49 2.64 2.76 2.95 3.24 3.19 3.33 3.86 4.66 4.47 4.31 4.74 4.55 4.11 3.48 3.47 3.40 3.09 2.97 2.88 2.76 2.96 3.23 3.13 2.89 2.58 2.56 2.84 2.63 2.36 2.58 2.43 2.22 2.11 1.73 1.45 1.39 1.32 1.18 1.11 1.15
3.67 3.92 2.99 3.16 3.04 3.14 3.38 3.31 3.05 2.96 3.16 4.01 4.98 5.14 4.92 5.06 5.08 4.73 3.83 3.53 3.80 3.59 3.66 3.50 3.29 3.42 3.40 3.14 2.80 2.50 2.47 2.60 2.53 2.53 2.37 2.29 2.47 2.18 2.17 2.32 2.30 1.94 1.91
2.49 3.15 3.19 3.10 3.43 2.86 2.59 2.90 3.15 3.06 2.97 3.09 3.91 4.66 5.41 5.52 5.41 5.27 5.20 4.51 3.80 3.61 3.49 3.66 3.58 3.61 3.74 3.69 3.64 3.38 3.01 2.70 2.40 2.47 2.52 2.50 2.54 2.71 2.58 2.73 3.24 2.90 2.30
2.00 2.00 2.29 2.79 2.93 2.78 2.98 3.08 2.87 3.11 3.46 3.39 3.44 3.43 3.78 4.90 5.70 5.40 5.20 4.91 4.56 3.97 3.13 2.93 3.28 3.70 3.90 3.89 4.11 4.10 4.06 4.13 4.23 4.03 3.72 3.66 3.34 2.65 2.64 2.65 2.90 2.96 2.92
1.61 1.94 1.91 1.80 1.91 2.22 2.26 2.31 2.12 2.52 2.98 3.03 3.46 3.11 3.36 3.22 4.55 4.59 4.95 5.43 5.71 5.73 5.19 4.23 3.90 4.33 4.04 4.29 4.52 4.28 4.08 4.29 4.39 4.26 4.32 4.17 3.70 3.42 3.15 3.47 3.75 3.96 3.81
1.36 1.48 1.55 1.75 2.05 2.09 2.39 2.40 2.41 2.34 2.53 2.87 3.11 2.76 2.61 2.65 3.44 3.44 3.71 3.62 4.08 4.53 4.46 4.46 4.11 4.14 4.15 3.39 4.16 4.29 4.20 4.31 4.29 4.19 4.08 3.91 3.93 3.89 4.11 4.58 4.58 4.46 4.11
1.26 1.44 1.54 1.45 1.51 1.71 1.97 2.21 2.72 3.09 3.02 2.74 2.52 2.47 2.36 2.51 2.90 2.51 2.85 2.49 2.58 2.72 2.87 3.04 3.03 2.82 3.52 3.76 3.59 4.06 4.20 4.33 4.52 4.76 4.52 4.40 4.44 4.28 4.48 4.43 4.20 4.18 4.31
1.09 1.19 1.25 1.41 1.56 1.61 1.74 2.09 2.24 2.40 2.35 2.41 2.39 2.29 2.20 2.22 2.63 2.38 2.14 1.47 1.66 1.84 1.83 1.94 2.25 2.10 3.08 2.91 2.48 2.74 3.14 3.45 4.10 4.15 3.84 3.77 3.61 3.24 3.16 3.58 4.35 4.54 4.37
0.91 1.08 1.19 1.31 1.63 1.93 2.13 2.03 1.88 1.90 2.15 2.32 2.46 2.47 2.49 1.96 2.42 2.19 2.05 1.70 1.76 1.76 1.73 1.74 2.58 1.98 2.67 2.32 2.03 1.88 2.15 2.23 2.29 2.61 2.81 2.70 2.50 2.44 2.80 2.18 2.37 3.25 3.87
0.90 0.95 1.22 1.48 1.57 1.76 1.88 1.99 2.08 2.10 2.04 2.12 2.27 2.40 2.45 2.34 2.30 2.33 2.23 1.90 1.96 2.08 2.12 2.00 2.08 2.71 2.11 2.10 2.15 2.00 2.80 2.87 3.19 2.71 2.54 2.54 2.32 2.11 2.04 2.10 2.02 2.55 3.03
0.68 0.74 0.81 0.90 1.18 1.35 1.53 1.69 1.67 1.67 1.76 1.77 1.81 1.96 1.96 2.12 2.49 2.44 2.14 2.14 2.34 2.10 2.29 2.38 2.76 2.93 2.26 2.16 2.25 2.79 3.14 2.74 2.24 2.22 2.24 2.28 2.26 2.26 2.25 2.19 2.31 2.43 2.38
0.66 0.75 0.82 0.82 0.89 1.06 1.15 1.22 1.21 1.24 1.24 1.24 1.25 1.34 1.45 1.47 1.66 1.92 1.81 1.86 2.00 1.91 2.14 2.43 2.49 2.28 2.03 2.05 2.33 2.49 2.46 2.51 2.75 2.91 2.95 2.88 2.64 2.40 2.32 2.37 2.43 2.44 2.29
0.60 0.71 0.82 0.81 0.91 0.92 0.88 0.81 0.75 0.81 0.84 0.95 1.05 1.10 1.14 1.21 1.30 1.42 1.45 1.46 1.61 1.82 2.11 2.21 2.23 2.24 2.16 2.21 2.28 2.28 2.27 2.43 2.52 2.62 2.60 2.57 2.45 2.31 2.23 2.13 2.10 2.09 2.23
0.49 0.63 0.67 0.69 0.70 0.65 0.75 0.83 0.71 0.81 0.83 0.82 0.96 1.12 1.29 1.53 1.70 1.58 1.51 1.65 1.77 1.93 2.02 2.23 2.37 2.32 2.16 2.01 1.93 1.90 1.94 1.97 1.99 1.92 1.86 1.80 1.79 1.72 1.61 1.48 1.53 1.50 1.54
0.49 0.45 0.64 0.62 0.63 0.65 0.66 0.94 1.17 1.14 1.12 1.15 1.21 1.22 1.49 1.64 1.76 1.71 1.69 1.68 1.71 1.74 1.81 1.81 1.80 1.72 1.61 1.54 1.44 1.39 1.34 1.26 1.13 1.02 1.00 0.96 0.95 0.92 0.88 0.88 0.96 0.98 0.95
0.65 0.50 0.57 0.68 0.64 0.66 0.80 0.78 0.93 1.35 1.44 1.56 1.61 1.66 1.55 1.71 1.63 1.58 1.44 1.38 1.42 1.28 1.35 1.26 1.19 1.10 0.97 0.85 0.77 0.75 0.85 0.79 0.66 0.66 0.63 0.56 0.50 0.50 0.62 0.50 0.49 0.52 0.58
1.25 1.22 0.99 0.98 1.05 1.09 1.22 1.48 1.54 1.59 1.84 2.16 2.16 1.92 1.78 1.55 1.49 1.46 1.34 1.31 1.38 1.06 0.87 0.74 0.67 0.58 0.54 0.52 0.45 0.44 0.53 0.57 0.55 0.45 0.40 0.41 0.43 0.43 0.45 0.40 0.37 0.37 0.37
1.56 1.62 1.55 1.48 1.51 1.57 1.52 1.61 1.68 1.56 1.47 1.45 1.44 1.46 1.35 1.18 1.04 0.96 0.88 0.90 0.76 0.63 0.57 0.53 0.50 0.47 0.50 0.48 0.47 0.45 0.55 0.57 0.57 0.56 0.48 0.54 0.57 0.60 0.55 0.49 0.48 0.52 0.54
1.68 1.83 1.71 1.57 1.54 1.46 1.39 1.26 1.26 1.22 1.11 0.95 0.86 0.87 0.89 0.91 1.00 0.89 0.77 0.66 0.60 0.57 0.54 0.50 0.46 0.45 0.46 0.45 0.45 0.48 0.50 0.57 0.57 0.53 0.42 0.40 0.41 0.41 0.42 0.37 0.37 0.43 0.37
1.62 1.55 1.40 1.20 1.17 1.10 1.08 1.07 1.04 1.09 1.04 0.88 0.83 0.73 0.56 0.57 0.57 0.51 0.54 0.58 0.50 0.46 0.47 0.43 0.41 0.43 0.42 0.40 0.40 0.42 0.38 0.39 0.41 0.46 0.37 0.39 0.46 0.45 0.39 0.40 0.38 0.36 0.38
1.09 0.96 0.89 0.88 0.89 0.94 0.88 0.85 0.85 0.89 0.88 0.79 0.77 0.72 0.64 0.65 0.53 0.52 0.52 0.54 0.49 0.42 0.37 0.35 0.35 0.35 0.32 0.35 0.37 0.42 0.40 0.38 0.38 0.42 0.34 0.32 0.36 0.40 0.40 0.42 0.42 0.40 0.41
0.71 0.72 0.69 0.70 0.71 0.72 0.70 0.70 0.75 0.91 0.95 0.90 0.81 0.82 0.91 0.83 0.68 0.62 0.60 0.61 0.56 0.53 0.48 0.46 0.46 0.42 0.42 0.44 0.43 0.44 0.43 0.35 0.34 0.44 0.43 0.39 0.38 0.40 0.38 0.36 0.36 0.40 0.40
0.79 0.77 0.75 0.77 0.74 0.71 0.70 0.73 0.78 0.86 0.89 1.01 1.00 0.85 0.81 0.80 0.80 0.76 0.72 0.71 0.69 0.64 0.58 0.59 0.54 0.49 0.44 0.48 0.47 0.44 0.43 0.45 0.51 0.52 0.50 0.51 0.44 0.43 0.42 0.40 0.35 0.34 0.36
0.54 0.83 0.94 0.94 0.95 1.00 0.95 0.91 0.94 0.96 0.98 0.99 0.97 0.88 0.73 0.73 0.72 0.68 0.64 0.60 0.58 0.58 0.53 0.52 0.50 0.52 0.46 0.46 0.48 0.44 0.45 0.47 0.45 0.46 0.59 0.56 0.47 0.45 0.46 0.43 0.42 0.48 0.44
0.25 0.40 0.61 0.76 0.86 1.01 1.15 1.17 1.17 1.15 1.12 1.01 0.95 0.89 0.77 0.70 0.63 0.62 0.62 0.61 0.60 0.60 0.58 0.57 0.52 0.50 0.52 0.53 0.48 0.51 0.47 0.41 0.42 0.43 0.51 0.52 0.56 0.56 0.55 0.53 0.48 0.55 0.50